Flag for Romania Weather past 2 weeks in Constanța, Romania

Now
68 °F

Partly sunny.


Feels Like: 68 °F
Forecast: 65 / 77 °F
Wind: 2 mph from North

Location: Constanta

Current Time: Jul 4, 2015 at 10:16:16 AM

Latest Report: Jul 4, 2015 at 9:00 AM


Visibility: 6 mi

Pressure: 30.17 "Hg

Humidity: 80%

Dew point: 62 °F

Location of ConstanțaLocation

Historic Weather in Constanța — Graph

°F

Constanța temperature yesterday

Maximum temperature yesterday: 75 °F (at 6:00 PM)
Minimum temperature yesterday: 63 °F (at 7:00 AM)
Average temperature yesterday: 69 °F

Past Weeks' High & Low Weather Summary

 TemperatureHumidityPressure
High82 °F (Jun 25, 3:00 PM)92% (Jun 22, 1:00 AM)30.20 "Hg (Jun 22, 1:00 AM)
Low59 °F (Jun 22, 6:00 AM)32% (Jun 20, 10:00 AM)29.74 "Hg (Jun 19, 7:00 PM)
Average70 °F63%29.95 "Hg
* Reported Jun 19 8:00 AM — Jul 4 8:00 AM, Constanța, Weather by CustomWeather, © 2015

Note: Actual official high and low records may vary slightly from our data, if they occured in-between our weather recording intervals... More about our weather records

Advertising

Constanța weather history for previous 24 hours

 ConditionsComfort  
Time TempWeatherWind HumidityBarometerVisibility
8:00 AM
Sat, Jul 4
66 °FPartly sunny.3 mph83%30.17 "Hg6 mi
7:00 AM65 °FOvercast.2 mph89%30.18 "Hg6 mi
6:00 AM65 °FOvercast.2 mph87%30.17 "Hg6 mi
5:00 AM65 °FOvercast.2 mph86%30.17 "Hg6 mi
4:00 AM66 °FOvercast.3 mph81%30.18 "Hg6 mi
3:00 AM67 °FOvercast.3 mph83%30.19 "Hg6 mi
2:00 AM67 °FPassing clouds.3 mph77%30.19 "Hg6 mi
1:00 AM68 °FPassing clouds.1 mph79%30.20 "Hg6 mi
12:00 AM68 °FThunderstorms. Overcast.3 mph82%30.20 "Hg6 mi
11:00 PM
Fri, Jul 3
69 °FThunderstorms. Overcast.2 mph80%30.20 "Hg6 mi
10:00 PM69 °FPassing clouds.3 mph72%30.20 "Hg6 mi
9:00 PM71 °FPassing clouds.3 mph71%30.19 "Hg6 mi
8:00 PM71 °FPartly sunny.2 mph68%30.19 "Hg6 mi
7:00 PM73 °FScattered clouds.2 mph63%30.17 "Hg6 mi
6:00 PM75 °FPartly sunny.2 mph60%30.18 "Hg6 mi
5:00 PM70 °FPartly sunny.3 mph75%30.19 "Hg6 mi
4:00 PM67 °FSprinkles. Overcast.3 mph84%30.19 "Hg6 mi
3:00 PM69 °FOvercast.2 mph72%30.18 "Hg6 mi
2:00 PM74 °FOvercast.3 mph63%30.17 "Hg6 mi
1:00 PM73 °FPartly sunny.6 mph65%30.16 "Hg6 mi
12:00 PM72 °FPartly sunny.5 mph66%30.16 "Hg6 mi
11:00 AM70 °FOvercast.2 mph67%30.16 "Hg6 mi
10:00 AM71 °FOvercast.5 mph63%30.15 "Hg6 mi
Weather by CustomWeather, © 2015

See weather overviewHow to use our weather pages